User: anonymous   Login
Location: Unspecified
(0.0000°N, 0.0000°E)
Time: 07:41:24
(UTC+00:00)
Language:

Picosat 4 - Orbit

View from above orbital plane
View from above orbital plane
View from above satellite
View from above satellite

Ground track
Ground track

The orbit data is extracted from the following two-line orbital elements,

1 26092U 00004K   17289.69211870 +.00000172 +00000-0 +68411-4 0  9998
2 26092 100.1874 001.9153 0033952 190.6032 169.4440 14.43323366929221
Epoch (UTC): 16 October 2017 16:36:39
Eccentricity: 0.0033952
inclination: 100.1874°
perigee height: 723 km
apogee height: 772 km
right ascension of ascending node: 1.9153°
argument of perigee: 190.6032°
revolutions per day: 14.43323366
mean anomaly at epoch: 169.4440°
orbit number at epoch: 92922

The dashed part of the orbit path shows where the satellite is in the earth's shadow,  

DLR